Showing default

O3B FM13, 43234

Orbit data source: Space-Track

O3B FM13, 43234 is a payload satellite owned by O3B SES (JE) that was launched on Fri, 09 Mar 2018 UTC via a SOYUZ-ST-B launch vehicle from the French Guiana (FRGUI). Payload-class satellites include a variety of spacecraft equipped with specific instruments for various scientific and technological missions. These include communications satellites like Starlink; space stations such as the ISS; scientific satellites like the Hubble; Earth observation satellites from companies like Planet Labs, Umbra, and HawkEye 360; GPS; miniature CubeSats for education and research; and military/defense satellites.

Loading next visibility...
Identifier
43234, 2018-024D
Orbit
Active
Country
Flag of UnknownUnknown / O3B
Related business
Manufacturer
Thales Alenia
Mission
Operational Commercial Communications
Bus & Motor
PRISMA?, LS-400 AOCS?
Mass
700 kg wet, ~500 kg dry
Launch date (UTC)
2018-03-09 (8 years ago)
Launch vehicle
SOYUZ-ST-B
Launch site
French Guiana (FRGUI)
Object type
Payload
Rocket body
Debris
Shape & HBR
Trap Box + 2 Pan, 6.0 m
Radar Cross Section
21.980 m², Large (>1 m²)

Expand to show TLE details & history
Last TLE update: 23 hours ago

TLE from 23 hours ago
0 O3B FM13
1 43234U 18024D   25301.97842814 -.00000016  00000-0  00000+0 0  9992
2 43234   0.0473  14.9747 0009355 149.2303 195.8312  5.00114398139494
Epoch: 2025-10-28T23:28Z
TLE epoch observation values (Epoch: 2025-10-28T23:28:56.191Z)
Latitude
-0.00881°
Longitude
-29.79233°
Altitude
8,077.395 km
Speed
5.25 km/s
True Right ascension
23h 59m 59s
True Declination
0° 00' 32"
Sunlit
Object was in daylight at epoch
Visualization orbit readout
Latitude
Unknown
Longitude
Unknown
Altitude
Unknown
Speed
Unknown
Apparent Right ascension
Unknown
Apparent Declination
Unknown
Sunlit
N/A
Visualization observer readout
Local Sidereal Time
17:43:58
Azimuth
Unknown
Elevation
Unknown
Doppler factor
Unknown
Orbital elements
Apogee altitude
8,082.485 km
Perigee altitude
8,055.455 km
Semi-major axis
14,447.107 km
Eccentricity
0.00094
Inclination
0.0473°
RAAN
14.9747°
Arg. of periapsis
149.2303°
True anomaly
195.80199°
Mean anomaly
195.8312°
Eccentric anomaly
195.81659°
Mean motion
1.24989 °/min
Orbital period
288.03 mins
BSTAR
0
Loading maneuver chart data...
Computing Atmospheric mass density...
Loading historical data...
Loading historical data...
Loading historical data...
Loading historical data...
Loading historical data...
Loading historical data...
Loading historical data...
Other satellites on launch #24 in the year 2018 (2018-03-09 UTC)

Documentation

Showing up to 5 results
|